Tracking 25378 objects as of 22-Jan-2022
HD Live streaming from Space Station
objects crossing your sky now

STARLINK-1979

Track STARLINK-1979 now!
10-day predictions
STARLINK-1979 is classified as:


NORAD ID: 47577
Int'l Code: 2021-009AF
Perigee: 553.3 km
Apogee: 555.5 km
Inclination: 53.1 °
Period: 95.6 minutes
Semi major axis: 6925 km
RCS: Unknown
Launch date: February 4, 2021
Source: United States (US)
Launch site: AIR FORCE EASTERN TEST RANGE (AFETR)
aabbcc
Your satellite tracking list
Your tracking list is empty




NASA's NSSDC Master Catalog

Two Line Element Set (TLE):
1 47577U 21009AF  22021.52641081 -.00000637  00000-0 -23862-4 0  9999
2 47577  53.0541 307.0378 0001593  67.0089 293.1068 15.06393687 53551
Source of the keplerian elements: AFSPC